sat.trackr.live / text

‹ back to catalog

STARLINK-11481 [DTC]

NORAD 62230 · 2024-231N

PAYLOAD ACTIVE UNKNOWN

§ Identity

Operator
Country
US
Launch date
2024-12-05
Launch site
AFWTR
Launch vehicle
Mass (kg)
RCS (m²)

Purposes: comms

External: N2YO · Heavens-Above · Gunter

§ Orbital elements

Epoch: 2026-05-25T01:45:32.941152Z

Period
91.73 min
Inclination
53.1567°
Eccentricity
0.0001121
Mean motion
15.69748111 rev/d
Perigee alt
358.9 km
Apogee alt
360.4 km
Semi-major
6,737.8 km
B*
7.3905e-4
RAAN
85.0670°
Arg perigee
104.8016°
Mean anomaly
255.3126°
Rev number
8,540

§ Raw data

STARLINK-11481 [DTC]1 62230U 24231N   26145.07329793  .00090066  00000+0  73905-3 0  99902 62230  53.1567  85.0670 0001121 104.8016 255.3126 15.69748111 85407

JSON: /api/v1/satellites/62230 · /tle

For live sub-satellite position, see the globe view (requires WebGL).

§ Visibility from observer

Set your observer location to see the next 7 days of passes ≥ 10°. The values pass through the URL so the page stays shareable.

No JS? Fill the form by hand. The geolocation button needs JavaScript.